Lid_Strength_Index
4 4 3 4 3 3 3 4 4 4 4 4 4 4 4 4 4 4 4 4 4 5 4 3 3 3 4 6 6 1 -1 -1 0 3 6 6 6 7 9 6 6 6 6 5 5 5 6
4 4 4 4 4 4 4 4 4 4 4 4 4 4 4 4 4 4 4 5 5 5 5 3 3 4 6 9 3 2 2 2 3 5 6 6 6 6 7 6 7 5 6 5 5 5 5
4 4 4 4 4 4 4 4 4 4 4 4 4 4 4 4 4 4 4 5 5 5 5 3 3 4 5 8 3 2 3 5 4 5 6 5 4 7 6 6 5 5 7 6 6 6 6
4 4 4 4 4 4 4 4 4 4 4 4 4 4 4 4 4 4 5 5 5 5 4 3 3 4 8 3 3 3 3 5 4 4 4 5 5 6 6 6 6 7 8 10 7 6 6
4 5 4 3 3 4 4 4 4 4 4 4 4 4 4 4 4 4 5 5 4 4 3 3 5 6 6 1 4 3 3 4 6 6 4 4 5 7 6 9 10 9 11 10 9 6 6
4 4 4 4 4 4 4 4 4 4 4 4 4 4 4 4 4 5 5 5 3 3 2 2 3 6 4 4 4 4 3 3 6 6 6 7 7 8 9 11 13 11 11 10 10 7 7
4 4 4 4 4 4 4 4 4 4 4 4 4 4 4 4 5 5 6 7 5 6 4 5 6 5 5 3 3 4 3 4 6 8 9 8 9 10 9 8 9 8 9 10 8 7 8
4 4 4 4 4 4 4 4 4 4 4 4 4 4 5 4 5 5 6 7 6 5 7 4 3 3 3 2 5 4 3 6 8 10 8 8 9 7 6 7 9 9 9 10 8 7 8
4 4 4 4 4 4 4 4 4 4 4 4 4 4 5 5 5 5 5 5 2 3 8 6 4 5 5 4 5 6 6 6 9 9 9 10 8 5 6 9 9 10 11 9 10 8 7
4 4 5 4 4 4 4 4 4 4 4 4 4 4 5 5 6 6 7 4 3 3 10 8 6 5 4 4 7 4 5 6 8 9 8 8 6 6 7 8 8 12 8 8 8 10 14
4 4 4 4 4 4 4 4 4 4 4 4 4 5 5 6 7 7 5 3 3 4 16 6 6 3 4 6 6 6 4 6 9 8 8 8 7 7 8 8 7 9 7 8 9 11 12
4 4 4 4 4 4 4 4 4 4 4 4 4 5 5 6 7 5 4 4 5 10 15 8 6 6 6 6 5 5 6 6 6 7 7 7 5 7 7 6 6 6 8 9 10 12 15
4 4 4 4 4 4 4 4 4 4 4 4 5 6 6 6 9 6 6 6 11 13 7 8 8 7 7 7 6 6 8 8 10 12 11 8 7 7 6 9 8 9 10 14 15 15 15
4 4 4 4 4 4 4 4 4 4 4 4 5 6 6 6 6 6 7 9 14 9 9 7 7 7 8 7 7 7 8 9 8 9 11 11 12 8 6 8 9 10 10 14 17 16 14
4 4 5 5 4 4 3 4 4 4 4 5 6 5 6 4 4 5 8 12 11 9 7 8 7 8 9 7 7 8 8 9 8 8 11 11 10 7 6 6 7 9 11 10 13 12 14
5 5 5 4 4 4 3 3 3 3 4 5 6 6 6 4 3 6 10 12 8 6 7 8 10 9 10 9 8 9 9 7 7 7 7 9 12 8 7 7 7 9 8 12 13 16 17
5 5 5 4 4 3 3 3 3 3 4 5 6 7 3 3 2 7 12 11 7 5 7 9 10 10 9 9 8 9 9 7 6 6 7 8 11 10 8 10 10 10 11 11 12 13 15
5 5 4 4 4 3 3 3 3 3 4 5 6 9 3 3 7 7 10 9 7 6 6 8 8 9 8 8 9 9 9 7 6 6 9 8 10 11 10 8 7 8 10 10 13 14 13
5 5 4 4 3 3 3 3 3 3 4 7 9 7 4 3 9 9 7 8 7 6 8 8 9 8 7 8 10 8 8 5 6 7 8 8 10 13 11 9 8 9 9 10 10 12 14
4 4 4 3 3 2 2 3 3 3 3 5 8 9 5 5 5 7 8 7 7 5 6 7 8 6 7 9 8 9 8 6 5 6 5 6 10 11 13 11 9 10 9 9 11 13 13
4 3 3 3 3 3 3 2 3 3 3 5 6 7 6 9 8 9 7 7 7 8 5 7 8 7 8 9 9 9 8 8 6 5 6 7 11 10 10 9 9 8 9 9 11 11 12
2 2 2 2 3 3 3 2 2 3 3 4 6 7 7 10 8 7 8 8 8 7 7 8 8 6 7 9 9 11 9 9 9 7 7 7 11 10 11 8 9 10 8 8 8 9 9
3 3 2 2 2 2 2 2 2 2 3 5 4 3 7 9 10 10 8 8 7 7 7 6 7 7 7 8 6 6 7 6 7 8 9 9 10 11 13 10 10 11 9 9 8 8 8
1 1 1 1 1 2 2 2 2 2 2 4 5 5 7 9 8 9 8 8 7 8 9 7 6 7 6 5 4 5 6 6 6 7 8 11 12 11 12 11 16 10 7 7 9 8 8
1 1 1 0 1 1 1 2 2 2 2 4 4 5 7 10 9 8 9 9 8 7 7 7 6 5 4 6 9 10 10 10 9 7 9 9 11 14 15 14 12 9 8 9 10 10 7
1 1 1 1 0 1 1 1 1 1 2 3 4 3 5 8 9 7 9 8 9 9 8 6 4 4 5 7 9 13 14 11 12 10 8 9 10 13 15 17 18 11 7 6 7 13 7
0 0 0 0 1 1 1 1 1 2 2 2 4 3 4 8 6 7 9 10 8 9 8 7 7 6 5 9 11 12 12 9 13 13 13 12 12 14 15 16 13 8 7 6 13 12 7
0 -0 -0 0 0 1 1 1 1 1 2 1 3 2 3 6 6 6 6 8 8 8 10 8 8 7 8 11 11 11 11 9 11 10 12 13 14 14 13 15 16 7 7 11 9 7 6
0 -0 -0 -0 0 1 1 1 1 1 1 0 4 2 1 4 5 4 4 5 5 5 8 8 8 8 8 10 10 10 10 10 11 14 9 15 12 13 13 13 8 7 8 6 5 6 6